Location: *
(46.1866°S, 178.5290°W)
Time: 03:24:02
(UTC+00:00)

Cosmos 2297 - Pass Details

Date: 19 May 2021
Orbit: 837 x 857 km, 71.0° (Epoch: 12 June)

Event Time Altitude Azimuth Distance (km) Brightness Sun altitude
Rises 05:24:41 0° 203° (SSW) 3,466 7.0 -9.9°
Reaches altitude 10° 05:27:19 10° 196° (SSW) 2,525 6.2 -10.3°
Maximum altitude 05:32:49 42° 125° (SE) 1,229 4.1 -11.2°
Drops below altitude 10° 05:38:15 10° 55° (NE) 2,503 5.8 -12.1°
Sets 05:40:50 0° 47° (NE) 3,432 6.6 -12.5°
